Regional Weather Roundup
Issued by NWS

Home | Current Version | Previous Version | Graphics & Text | Print | Product List | Glossary On
Versions: 1 2 3 4 5 6 7 8 9 10 11 12 13 14 15 16 17 18 19 20 21 22 23 24 25 26 27 28 29 30 31 32 33 34 35 36 37 38 39 40 41 42 43 44 45 46 47 48 49 50
000
ASUS43 KTOP 280208
RWRKS

WEATHER ROUNDUP FOR KANSAS
NATIONAL WEATHER SERVICE GOODLAND KS
800 PM CST SAT DEC 27 2014

NOTE:  "FAIR" INDICATES FEW OR NO CLOUDS BELOW 12,000 FEET WITH NO
SIGNIFICANT WEATHER AND/OR OBSTRUCTIONS TO VISIBILITY.

KSZ001>006-013>018-027>032-041>047-280300-
NORTHWEST KANSAS

CITY           SKY/WX    TMP DP  RH WIND       PRES   REMARKS
GOODLAND       PTCLDY    15   8  73 W9        30.17S
HAYS           CLEAR     18   7  62 CALM      30.25S
HILL CITY      CLEAR     14  10  84 W7        30.24S
RUSSELL        FAIR      20  16  84 W5        30.25R
$$

KSZ061>065-074>080-084>089-280300-
SOUTHWEST KANSAS

CITY           SKY/WX    TMP DP  RH WIND       PRES   REMARKS
DODGE CITY     CLEAR     22  14  71 SW5       30.24R
ELKHART          N/A     23  11  60 SE8         N/A
GARDEN CITY    CLEAR     22  16  78 SW5       30.22S
GREAT BEND     CLEAR     21  12  68 W5        30.27S
LIBERAL        CLEAR     21  10  63 CALM      30.25S
PRATT          CLEAR     23  18  80 N3        30.27R
$$

KSZ066>073-081>083-090>101-280300-
SOUTHEAST KANSAS

CITY           SKY/WX    TMP DP  RH WIND       PRES   REMARKS
CHANUTE        CLEAR     27  19  72 NW3       30.29R
COFFEYVILLE    CLEAR     28  19  69 NW6       30.30R
HUTCHINSON     CLEAR     20  13  74 CALM      30.28S
MEDICINE LODGE   N/A     24  17  74 CALM      30.27S
NEWTON         CLEAR     25  12  58 NW3       30.28S
PARSONS        CLEAR     25  19  78 CALM      30.30R
WICHITA INTL   CLEAR     27  16  63 NW5       30.28S
WICHITA JABRA  CLEAR     24  16  71 NW5       30.28S
WICHITA MCCONL CLEAR     27  17  66 N5        30.28S
WINFIELD       CLEAR     25  19  78 NW6       30.30R
$$

KSZ007>012-019>026-033>040-048>060-102>105-280300-
NORTHEAST KANSAS

CITY           SKY/WX    TMP DP  RH WIND       PRES   REMARKS
CONCORDIA      CLEAR     21  16  81 W7        30.26S
EMPORIA        CLEAR     23  17  78 NW7       30.27R
LAWRENCE       CLEAR     24  17  74 NW6       30.28S
MANHATTAN      CLEAR     24  18  77 W3        30.28S
MARYSVILLE     CLEAR     23  18  80 W3        30.26S
OLATHE IND     CLEAR     25  18  74 NW8       30.26S
OLATHE EXE     CLEAR     28  19  69 N7        30.25S
SALINA         CLEAR     24  15  68 W3        30.29S
TOPEKA BILLARD CLEAR     27  18  69 W5        30.28F
TOPEKA FORBES  CLEAR     26  17  68 W3        30.26F
$$



USA.gov is the U.S. government's official web portal to all federal, state and local government web resources and services.